RH
13 15 14 15 17 19 21 23 26 29 33 37 39 43 50 61 78 86 91 101 103 102 103 103 101 100 101 101 101 100 100 100 100 102 101 101 101 100 100 100 101 101 104 107 106 100 95 92 89 89 90 91 92 93 93 93 91 87 79 67 55 45 39 36 35 35 35 36 36 36 36 35 35 34 33 34 35 36 37 38 38 38 39 39 39 40
13 15 13 14 17 18 20 23 26 29 32 37 42 53 67 79 93 103 103 101 101 101 101 100 99 100 101 101 100 101 100 100 101 102 101 102 102 101 100 101 103 104 104 102 99 96 92 90 89 90 91 92 91 91 91 90 85 75 61 49 41 37 36 37 37 36 35 35 34 34 34 33 34 35 36 38 39 40 41 42 42 42 43 43 44 45
15 15 14 17 19 20 22 24 27 32 37 48 60 75 88 92 97 106 107 103 100 99 100 100 100 100 100 101 102 101 101 102 102 101 102 102 101 100 102 106 107 104 98 93 89 86 86 87 89 91 93 93 92 91 88 81 69 57 47 41 39 39 38 37 36 35 34 34 33 34 35 36 38 39 41 42 43 44 44 45 45 46 46 46 46 46
15 16 16 19 21 22 26 30 38 51 62 72 81 88 94 94 95 101 104 102 100 99 100 100 99 100 100 101 102 102 102 104 102 100 102 103 102 105 107 107 104 98 92 87 85 85 87 89 91 92 92 91 88 82 73 61 50 43 39 39 39 38 36 35 34 34 34 35 35 37 39 40 42 43 44 44 45 45 45 46 47 47 48 48 48 48
21 23 25 27 32 36 41 49 61 75 82 82 81 83 89 92 95 100 102 101 100 100 101 100 100 100 100 101 102 102 101 103 103 103 105 106 106 108 107 104 100 97 93 91 91 92 94 94 94 91 87 80 72 62 50 42 38 37 37 37 36 34 34 34 34 35 36 38 39 41 42 43 43 44 44 44 45 45 45 46 47 48 49 50 51 51
29 31 34 39 44 51 56 60 67 74 78 78 75 80 90 96 100 102 102 100 100 101 100 101 101 100 101 103 103 101 102 105 106 107 108 107 105 104 103 100 97 95 93 94 96 97 97 96 91 83 72 61 52 43 38 35 36 37 36 35 34 34 35 36 37 38 40 41 43 44 44 45 45 45 45 44 43 44 44 46 48 50 51 53 54 54
34 34 39 45 49 54 60 64 68 71 79 85 87 91 98 101 102 102 101 101 101 101 101 102 102 101 101 102 101 102 106 108 108 107 106 105 103 101 97 93 91 90 92 94 96 96 93 86 75 63 52 44 39 36 35 36 37 36 34 33 34 35 36 37 39 41 43 44 45 45 45 45 44 44 43 43 42 44 45 47 50 52 53 54 55 56
33 35 38 44 48 54 63 69 74 77 86 94 97 101 103 102 102 102 101 102 102 101 102 103 102 103 104 103 102 101 101 102 103 104 103 100 98 94 90 88 87 87 88 88 86 80 71 60 49 41 37 35 35 36 37 38 38 36 35 36 38 40 42 44 46 47 48 47 46 45 45 44 43 41 41 42 43 45 47 50 53 54 55 56 56 56
27 32 35 39 45 51 58 67 74 79 86 93 98 104 105 105 105 105 104 105 104 104 107 106 103 104 104 101 99 98 97 98 99 98 96 93 90 87 84 82 80 78 75 70 62 53 44 38 34 32 33 34 36 38 40 40 38 38 41 45 47 49 50 50 51 51 50 50 49 47 46 45 44 42 42 42 43 45 48 50 53 55 56 57 58 58
20 24 27 32 40 45 50 59 67 74 81 87 94 99 101 103 104 102 100 100 102 104 106 104 101 102 100 96 97 99 99 98 96 92 90 88 83 77 72 68 64 60 55 48 41 36 33 32 32 33 34 36 38 40 40 40 40 44 48 51 52 52 52 52 52 51 51 49 47 46 45 44 43 43 43 44 46 48 49 51 52 53 54 55 56 57
18 19 20 24 30 34 39 47 54 62 70 78 85 90 92 94 94 95 95 96 102 105 105 104 103 103 101 98 95 93 88 85 83 80 77 71 63 56 53 51 48 44 40 36 34 33 33 33 33 35 37 39 40 40 39 40 43 47 51 52 53 53 52 52 51 50 49 47 45 44 42 41 40 42 44 46 49 51 52 52 52 52 52 53 54 54
20 20 20 21 23 25 29 35 40 47 55 66 74 80 87 90 90 97 102 103 107 107 104 103 98 93 90 84 78 73 67 64 62 59 54 47 42 39 39 39 38 36 35 34 33 33 34 35 36 38 39 39 38 38 38 40 43 45 47 49 50 50 49 48 47 47 46 45 43 41 40 40 41 43 47 50 52 52 51 50 50 51 52 53 52 49
21 22 22 22 22 23 24 27 30 34 40 50 58 64 72 78 82 92 98 99 102 100 95 88 79 72 67 60 54 49 45 43 42 40 38 36 34 34 34 35 35 35 35 35 36 37 39 40 40 40 39 38 38 39 40 41 42 42 43 42 42 42 42 42 42 42 42 42 42 42 43 44 45 48 50 51 50 49 49 49 51 52 51 49 45 43
21 21 21 22 22 22 23 25 26 28 31 36 42 45 49 53 58 66 70 72 72 70 66 59 51 47 43 39 37 35 33 34 34 34 34 34 34 35 36 37 38 38 39 40 42 42 42 41 39 38 37 38 38 39 40 41 42 41 41 40 40 39 39 39 40 41 42 44 46 47 47 47 48 50 51 50 50 50 52 53 52 50 47 44 44 45
21 21 21 21 21 21 22 23 24 26 26 28 31 33 34 35 37 40 41 42 42 41 41 38 35 34 33 33 33 32 34 35 36 37 37 38 39 40 41 42 44 45 46 47 47 45 42 40 40 40 41 41 42 43 44 44 44 44 44 43 44 44 44 45 45 46 46 47 48 48 50 52 53 54 53 53 53 53 51 49 46 45 45 46 47 48
22 22 22 21 21 21 22 23 23 24 25 26 27 29 30 30 30 31 31 31 32 33 34 33 33 34 34 35 37 39 41 43 43 44 44 45 46 47 48 48 49 49 49 48 47 46 45 46 46 46 46 46 46 47 47 46 47 48 49 50 50 49 48 48 47 46 47 48 50 52 54 55 55 54 54 53 51 48 46 45 45 46 46 47 47 47
22 23 23 23 23 23 24 25 25 26 27 27 29 30 31 33 33 35 35 35 35 37 37 38 39 40 41 42 44 47 49 49 49 51 52 54 54 54 53 52 50 48 47 48 50 52 53 53 52 50 50 50 51 50 50 50 50 50 50 49 48 47 46 46 46 47 48 49 51 51 51 51 51 50 49 48 47 46 47 47 47 46 45 44 44 43
24 26 26 25 25 27 28 29 30 31 33 33 34 35 36 37 37 38 39 40 41 42 43 43 44 45 47 48 53 58 60 60 62 63 63 62 60 58 55 52 50 47 47 49 53 55 54 53 52 52 53 52 51 49 48 47 46 46 45 45 45 46 47 48 48 49 50 50 51 50 50 49 47 46 46 46 46 45 45 44 42 41 40 39 38 36
26 30 31 29 29 31 32 33 34 34 35 36 37 39 40 42 44 45 47 49 50 52 54 55 57 59 61 65 69 71 69 66 64 62 60 58 57 57 56 55 53 51 51 53 54 54 53 51 51 51 50 49 47 46 45 45 46 46 47 48 49 50 51 51 51 51 51 50 49 47 46 46 44 44 42 40 38 36 35 34 33 33 32 31 29 27
29 32 34 31 30 31 32 32 34 37 40 45 50 53 55 56 56 57 57 57 59 62 65 67 67 67 68 67 65 62 61 61 63 64 66 66 66 65 64 64 63 62 62 61 59 56 54 53 53 52 52 52 52 52 52 53 53 54 54 53 53 53 52 50 49 47 46 45 44 43 41 40 38 36 34 32 30 29 27 26 25 24 22 20 19 16
28 28 29 28 28 30 33 36 41 47 53 57 60 60 58 55 53 52 52 54 57 59 60 58 54 54 56 54 53 57 63 69 77 82 83 81 77 73 70 69 67 65 64 63 61 59 59 59 59 58 58 58 58 58 56 55 54 53 51 50 48 47 46 45 44 44 43 42 41 40 38 36 34 31 29 27 24 21 18 16 15 14 13 12 11 11
26 27 29 31 33 36 41 46 50 53 55 55 53 49 46 43 41 40 41 46 51 54 55 51 47 51 58 58 61 66 71 76 81 83 83 79 73 69 68 67 65 64 64 64 63 62 62 62 60 59 57 56 54 52 50 48 47 45 45 44 44 43 43 43 43 42 41 40 39 37 34 32 28 25 21 18 15 13 11 10 10 10 9 10 10 10
29 34 38 40 41 41 42 44 46 46 44 41 37 34 33 33 34 38 43 53 63 70 71 68 67 73 76 74 75 78 78 79 79 77 75 71 66 66 68 68 67 65 64 62 59 58 56 54 51 50 48 47 45 45 44 44 44 44 44 44 44 44 44 43 42 40 37 35 31 28 24 20 16 14 13 11 11 11 10 10 10 9 9 9 9 9
27 33 38 40 37 34 33 34 37 38 35 32 32 33 34 37 43 51 61 71 80 87 89 86 87 94 97 95 93 90 88 86 83 80 77 72 68 66 65 63 60 56 53 51 49 48 47 46 46 46 46 47 46 47 47 46 46 46 46 45 44 43 40 37 33 28 24 21 18 15 13 12 11 10 10 10 10 10 10 10 9 9 8 8 8 8
20 23 27 30 32 33 35 36 37 36 32 33 40 46 49 53 60 70 79 85 89 91 91 91 94 97 99 100 98 92 88 84 78 72 66 59 55 53 52 50 48 48 48 48 49 50 50 51 51 50 50 49 48 47 47 46 45 44 41 38 34 29 25 21 17 14 13 12 11 11 11 10 10 9 9 9 9 8 8 8 7 7 7 7 7 7
20 20 21 22 25 31 36 39 43 48 52 57 64 69 70 73 79 84 88 89 89 87 86 87 87 83 78 76 73 67 63 59 56 53 51 50 51 52 53 54 56 57 58 58 57 55 53 52 50 49 47 46 45 43 41 38 34 30 25 21 17 14 13 12 11 11 11 11 11 10 10 10 9 9 8 8 7 7 7 7 7 6 6 6 6 6
22 22 21 21 21 27 33 37 43 52 62 70 74 74 73 78 85 89 88 86 82 79 76 73 70 66 61 58 57 57 57 58 60 64 66 67 68 68 67 65 63 61 58 55 53 50 49 47 46 43 41 37 34 29 25 21 17 15 13 12 12 12 12 11 11 11 10 10 9 9 8 8 8 7 7 7 6 6 6 6 5 5 5 5 5 5
23 22 22 22 22 29 37 42 46 51 57 63 63 59 59 65 73 75 74 70 65 64 66 65 64 65 65 66 68 69 71 73 75 75 73 71 69 65 61 57 54 52 50 48 46 43 40 37 33 29 25 22 19 16 15 14 13 13 13 13 12 12 11 10 10 9 8 8 7 7 7 6 6 6 6 6 5 5 5 5 5 4 4 4 4 4
25 28 30 30 30 36 41 44 47 50 51 53 51 49 49 54 59 60 61 62 62 64 69 72 73 74 75 74 73 72 70 69 67 64 60 57 53 51 49 48 46 44 41 38 33 29 25 21 19 17 16 16 15 15 14 14 13 13 12 11 10 9 8 8 7 7 6 6 6 6 5 5 5 5 4 4 4 4 4 4 4 4 4 4 4 4
31 35 38 36 35 38 41 42 46 50 53 55 54 54 57 60 62 64 66 68 69 72 74 74 73 72 70 68 65 61 58 55 52 50 49 48 47 46 44 40 36 31 27 23 20 18 18 17 17 17 16 15 14 13 12 11 10 9 9 8 7 7 6 6 6 6 5 5 5 4 4 4 4 4 4 4 4 4 4 4 4 4 4 4 4 4
32 37 40 41 44 49 54 57 61 64 66 65 63 63 66 67 68 69 70 71 72 73 71 68 66 64 62 59 56 53 50 49 49 49 47 45 41 36 31 26 23 20 19 19 19 20 19 18 16 15 13 12 10 10 9 8 7 7 7 6 6 5 5 5 5 4 4 4 4 4 4 4 4 4 4 4 4 4 4 4 4 4 4 4 4 4
40 47 52 54 57 60 63 65 66 66 66 66 66 68 70 72 72 72 72 71 70 67 64 61 60 59 58 57 56 54 52 49 46 41 35 30 26 23 21 19 19 20 20 20 20 18 16 14 12 11 10 9 8 7 7 6 6 6 5 5 5 4 4 4 4 4 4 5 4 4 5 5 5 5 5 5 5 4 4 4 4 4 4 4 4 4
51 56 58 58 57 57 58 61 64 67 69 70 72 74 74 72 70 67 65 64 63 61 59 58 57 57 57 56 54 52 46 39 32 26 21 20 19 19 19 19 19 18 17 16 14 12 10 9 9 8 7 7 6 6 6 5 5 5 5 5 5 5 5 5 5 5 5 5 5 5 5 5 5 5 4 4 4 4 4 4 3 3 3 3 3 3
51 54 56 57 57 58 59 63 68 70 71 72 72 71 69 66 62 61 63 64 64 61 58 56 54 53 50 46 41 35 29 24 21 18 17 16 16 17 17 16 15 14 12 10 9 8 8 7 7 7 6 5 5 5 5 5 4 5 5 5 5 5 5 5 5 5 5 5 5 4 4 4 4 4 4 4 3 3 3 3 3 3 3 3 3 3
50 53 56 58 61 64 67 70 72 72 71 69 67 65 63 61 60 60 62 62 61 58 55 53 49 43 36 29 25 21 19 19 18 17 16 16 15 14 13 12 11 10 9 9 8 7 7 6 6 5 5 5 5 5 5 5 5 5 5 5 5 5 5 5 5 5 5 4 4 4 3 3 3 3 3 3 2 2 2 2 3 2 2 2 2 2
54 56 59 63 66 69 71 71 70 69 67 65 65 64 63 62 60 59 59 59 57 54 50 43 35 28 22 20 19 19 19 19 20 19 17 16 14 12 11 10 9 9 9 8 7 6 6 5 5 5 5 5 5 5 5 5 5 6 6 6 5 5 5 5 4 4 4 3 3 3 2 2 2 2 3 2 2 3 2 2 2 2 2 2 2 2
59 62 64 66 67 68 68 66 64 64 65 65 66 66 63 61 58 55 53 50 44 37 31 25 21 18 18 18 18 18 19 21 22 20 17 15 14 12 11 10 9 9 8 7 6 5 5 5 5 5 5 5 5 5 5 5 5 6 6 5 5 5 5 4 4 3 3 2 2 2 2 2 3 2 3 3 3 3 3 2 2 2 2 2 2 2
64 65 66 66 65 63 61 60 58 60 63 64 64 63 59 56 51 44 38 33 26 21 19 17 16 16 16 17 18 18 18 19 20 19 16 15 13 11 10 9 8 8 7 6 6 6 6 7 7 6 6 5 5 5 5 5 5 5 5 5 4 4 4 3 3 3 3 3 2 2 2 2 2 3 3 3 3 3 3 3 3 3 2 2 2 2
64 62 61 60 58 56 56 56 56 58 60 60 59 58 52 45 37 28 23 20 18 17 17 16 16 17 17 17 17 16 15 15 15 15 14 12 11 9 9 8 8 7 7 7 7 7 7 7 7 6 6 6 6 6 5 5 5 4 4 4 3 3 3 3 3 3 3 3 2 3 3 2 3 3 3 3 3 3 3 3 3 3 3 2 2 2
57 56 55 55 55 55 57 58 58 57 56 53 50 45 37 29 23 19 18 18 18 18 19 18 18 18 17 16 15 14 13 12 11 10 10 9 9 8 8 7 7 7 7 7 8 7 7 7 6 6 6 6 6 6 5 5 4 4 3 3 3 3 3 2 3 3 2 3 3 3 3 3 3 3 3 3 3 3 3 3 3 3 3 2 2 2
52 53 55 56 56 57 58 58 56 52 47 42 36 30 24 21 19 18 18 18 18 18 19 18 17 16 15 14 13 12 11 10 9 8 8 8 8 8 8 8 8 8 7 7 7 7 7 7 7 6 6 5 5 5 4 4 4 3 3 3 3 3 3 3 3 3 2 3 3 3 3 3 3 3 3 3 3 3 3 3 3 3 3 2 2 2
51 54 56 57 57 56 53 49 44 38 32 28 24 21 20 19 18 18 18 18 18 17 17 16 14 13 12 11 10 10 10 9 9 9 8 8 8 8 8 8 8 8 7 7 7 7 7 7 7 6 5 5 4 4 3 3 3 3 3 3 3 3 3 3 3 3 3 3 3 3 3 2 2 2 3 3 3 3 3 2 2 2 2 3 2 2
53 55 54 52 48 44 38 32 28 24 21 21 20 19 19 18 17 17 17 17 16 15 14 12 11 10 10 10 10 10 10 10 9 9 9 8 8 8 8 8 8 7 7 7 7 7 7 7 6 5 5 4 3 3 3 3 3 3 3 3 3 3 3 3 3 3 3 3 3 3 2 2 2 2 2 2 3 3 2 2 2 2 2 3 2 2
50 48 43 37 31 27 24 21 19 18 18 18 18 17 17 16 16 15 15 14 13 12 11 10 10 10 9 10 10 10 10 10 10 9 9 8 8 8 8 8 8 8 8 7 7 7 6 6 5 5 4 3 3 3 3 3 3 3 3 3 3 3 3 3 3 3 3 3 3 3 2 2 2 2 2 2 2 2 2 2 2 2 2 2 2 2
37 32 28 24 21 20 19 18 17 16 16 16 16 16 15 14 13 12 11 11 10 10 10 10 10 10 10 10 11 11 10 10 9 9 9 8 8 8 8 8 8 8 7 7 6 6 5 5 4 4 3 3 3 3 3 3 3 3 3 3 3 3 3 3 3 3 3 3 2 2 2 2 2 2 2 2 2 2 2 2 2 2 2 2 2 2
25 22 21 20 18 18 17 17 16 15 15 14 14 13 12 12 11 11 11 11 11 11 11 11 11 11 11 10 10 10 9 9 9 9 8 8 8 8 8 8 8 7 6 6 5 5 4 4 4 4 4 4 4 3 3 3 3 3 3 3 3 3 3 3 3 3 3 2 2 2 2 2 2 2 2 2 2 2 2 2 2 2 2 2 2 2
20 19 18 17 16 16 16 15 15 14 13 12 12 12 12 12 12 12 12 12 11 11 11 11 11 11 10 10 9 9 8 8 8 8 8 8 8 9 8 7 7 6 5 5 4 4 4 4 4 4 4 4 4 4 4 4 4 3 3 3 3 3 3 3 3 3 3 2 2 2 2 2 2 2 2 2 2 2 2 2 2 2 2 2 2 2
18 17 17 16 15 15 14 14 13 13 13 13 13 13 14 13 13 13 12 12 12 11 11 11 10 10 10 9 9 8 8 8 8 8 8 8 8 8 7 6 6 5 5 4 4 4 4 4 4 4 4 4 4 4 4 4 3 3 3 3 3 3 3 3 2 2 2 3 2 2 2 2 2 2 2 2 2 2 2 2 2 2 2 2 2 2
16 16 15 15 14 14 13 13 14 15 15 15 14 14 14 13 13 12 12 11 11 11 10 10 9 9 9 8 8 9 9 9 9 8 8 8 7 7 6 6 5 4 4 4 4 4 4 4 4 4 4 4 4 4 4 4 3 3 3 3 3 3 3 3 3 2 2 3 2 2 2 2 2 2 2 2 2 2 2 2 2 2 2 2 2 2
15 14 14 14 14 14 14 14 14 14 14 14 13 13 13 12 12 11 11 11 11 10 10 10 9 8 8 9 9 9 9 9 9 9 8 7 6 6 5 5 5 4 4 4 4 4 4 4 4 4 4 4 4 4 3 3 3 3 3 3 3 3 3 3 2 2 2 2 2 2 2 2 2 2 2 2 2 2 2 2 2 2 2 2 2 2
14 13 13 14 14 14 14 13 12 13 12 12 12 12 11 11 11 10 10 10 10 9 9 9 9 9 9 9 9 9 9 9 9 8 7 6 6 5 5 4 4 4 4 4 5 5 5 5 4 4 4 4 4 4 3 3 3 3 3 3 3 3 3 3 3 3 2 3 2 2 2 2 2 2 2 2 2 2 2 2 2 2 2 3 3 3
Wind_Speed
55 57 59 59 59 60 60 60 60 60 60 60 59 58 56 54 53 54 52 51 51 51 53 57 59 62 65 65 66 68 69 69 70 73 75 76 78 79 81 82 83 85 86 88 89 90 91 92 93 92 92 91 90 89 88 87 87 87 86 84 83 82 82 82 81 81 81 80 78 76 74 71 70 68 67 67 67 68 69 70 71 72 73 74 75 76
52 54 56 56 56 57 57 57 58 58 57 57 56 53 52 51 50 51 52 53 53 53 56 59 61 63 63 63 65 68 70 71 73 75 77 78 79 81 82 84 86 88 89 90 91 93 94 95 94 93 92 91 89 88 88 88 87 86 85 84 83 83 83 82 82 82 80 78 75 72 69 67 67 67 68 68 70 71 72 73 74 75 76 77 78 79
50 51 52 52 53 54 54 55 54 54 54 53 52 50 50 51 50 51 53 54 55 56 57 59 60 62 63 64 67 70 72 74 76 77 79 80 81 83 84 86 88 89 91 93 94 95 96 95 94 93 91 89 88 88 87 87 86 85 84 84 84 84 83 82 81 78 75 73 70 68 67 67 68 69 71 72 73 74 75 76 77 79 80 80 82 83
48 49 49 49 51 51 51 51 50 49 50 50 50 50 51 53 53 53 54 55 56 58 59 61 64 66 67 68 70 73 75 77 78 80 82 83 84 86 87 89 90 92 94 95 96 96 95 94 92 90 89 88 88 87 87 86 85 85 84 84 84 82 80 77 74 72 70 69 68 68 69 70 71 73 74 75 76 77 78 79 81 82 83 84 85 87
46 46 47 48 48 49 48 48 47 47 49 51 52 52 52 53 53 53 54 56 58 60 62 65 68 69 70 71 73 75 77 79 81 83 85 86 87 88 89 91 93 95 96 97 96 95 93 91 89 88 88 87 87 86 86 85 85 85 84 83 81 77 74 71 70 69 69 70 71 72 73 74 75 76 78 79 80 81 82 83 85 86 87 88 89 90
45 46 46 47 47 48 48 49 49 50 51 53 54 53 52 53 53 54 55 57 60 62 65 69 72 73 73 74 76 78 80 82 84 86 87 88 89 91 93 95 96 96 96 96 94 92 90 89 88 88 87 86 86 86 86 85 85 84 83 80 76 73 72 71 72 73 74 75 75 76 78 79 80 81 82 83 84 85 86 87 89 90 91 92 93 94
46 47 47 48 48 49 50 51 52 53 53 54 55 55 54 55 56 58 60 62 64 66 70 73 75 76 77 78 79 81 83 84 86 87 88 90 92 94 96 96 95 95 94 93 91 89 88 88 87 86 86 86 86 86 86 85 85 83 80 76 74 74 74 75 76 77 78 79 80 81 82 83 84 85 86 87 88 89 90 92 93 94 95 96 97 98
47 48 49 49 50 51 52 53 54 55 55 55 57 58 59 60 61 63 65 67 69 70 73 76 77 78 80 81 82 83 84 85 87 89 91 94 95 95 95 94 93 92 90 89 88 87 87 87 86 86 86 86 86 86 86 86 84 81 77 76 76 77 78 79 81 82 83 84 84 86 86 88 89 89 90 91 93 94 95 96 97 99 100 101 101 102
47 49 50 51 52 53 54 55 57 58 58 59 61 62 63 65 67 68 70 72 73 74 76 77 78 80 81 82 84 84 85 88 90 92 94 94 94 93 92 90 89 87 87 87 87 87 86 86 86 86 85 85 86 86 86 85 82 79 78 78 79 81 82 84 85 86 87 88 89 90 91 92 93 94 95 96 97 98 99 100 101 103 104 105 106 107
47 49 50 51 53 54 55 57 59 60 61 63 64 66 67 68 70 71 72 73 74 75 76 78 79 81 83 84 86 88 89 90 92 92 93 92 91 89 87 86 86 86 87 87 87 87 86 86 86 85 86 86 86 86 85 82 80 79 80 81 83 85 86 88 90 91 92 93 94 95 95 96 98 99 100 101 102 103 104 105 106 107 108 109 110 111
46 48 49 51 52 54 56 57 59 61 62 64 66 67 69 70 71 72 73 73 74 76 78 80 82 84 86 86 87 88 88 89 89 89 89 87 86 85 84 85 86 87 88 88 87 86 86 86 86 86 87 87 86 85 82 80 80 81 83 85 87 89 90 92 94 95 96 97 98 99 100 101 102 103 104 105 106 108 109 110 111 112 113 113 114 115
44 46 48 49 51 53 55 57 58 60 62 64 66 67 69 71 71 73 74 75 77 79 81 83 84 86 86 85 85 85 84 84 84 84 84 84 84 84 84 85 86 87 87 87 86 86 86 86 87 87 86 86 84 82 81 82 83 85 86 88 90 92 94 96 97 99 100 102 103 104 105 106 107 108 109 110 111 112 114 115 116 117 117 118 119 120
44 45 46 48 50 51 53 55 56 58 60 62 65 66 68 70 71 73 75 77 79 80 81 83 83 83 82 81 80 79 79 79 81 82 83 83 83 83 83 84 85 86 86 86 86 86 86 87 86 86 85 83 83 83 84 85 87 89 91 92 94 95 97 99 100 102 104 105 107 109 110 111 112 113 114 115 116 117 118 119 120 121 122 123 123 123
45 46 47 48 49 51 52 53 54 56 57 60 62 64 66 67 69 71 72 74 76 77 77 78 78 78 78 77 77 77 77 78 80 81 81 81 81 82 82 83 84 85 85 85 85 86 86 85 84 83 83 83 84 85 87 89 91 93 95 97 98 99 101 103 104 105 107 109 111 113 115 116 117 118 119 120 121 122 123 124 125 125 125 126 126 126
46 48 49 50 51 52 53 53 54 56 57 58 60 62 63 65 66 67 68 69 71 72 74 75 76 77 76 76 76 76 77 78 80 80 81 81 81 82 82 83 83 84 85 85 84 84 84 84 83 83 84 85 87 89 92 94 96 98 99 101 103 104 106 107 109 110 111 113 115 118 120 121 122 123 124 125 126 127 127 127 127 127 127 128 129 130
47 50 52 52 53 54 54 55 56 57 58 59 60 62 63 65 66 67 68 69 69 70 72 74 75 76 76 75 75 75 77 78 79 80 81 81 81 82 82 82 82 83 83 82 82 83 83 83 84 86 87 89 91 93 96 98 100 102 104 106 107 109 110 112 113 114 116 117 119 121 123 125 126 128 129 130 130 130 130 130 130 130 130 131 132 134
49 51 54 54 55 55 55 56 57 58 59 60 61 62 64 65 66 67 68 69 69 70 71 73 73 74 75 74 74 75 77 78 79 80 80 81 81 82 81 81 80 80 80 80 81 83 84 86 87 89 91 93 95 98 100 102 104 106 108 110 111 113 115 116 118 119 120 122 123 125 127 128 130 131 132 132 132 132 133 133 134 135 135 135 135 136
50 52 56 56 56 57 57 57 58 59 60 61 62 63 64 65 66 67 68 69 69 70 71 72 72 72 73 73 73 75 76 77 78 79 80 80 80 80 79 79 79 79 80 81 83 85 87 89 91 93 96 98 100 102 104 106 108 110 112 114 115 117 119 121 122 123 125 127 128 129 130 132 133 134 134 134 135 135 136 136 137 137 137 137 137 137
51 53 56 58 57 57 58 58 58 59 60 61 62 63 64 65 66 67 67 68 68 69 70 71 71 71 72 73 74 75 76 76 77 78 78 78 78 78 78 79 80 81 83 85 87 90 92 94 96 98 100 102 105 107 109 111 113 115 117 119 120 122 124 125 127 128 129 131 132 132 133 134 135 136 137 137 137 137 136 136 136 136 137 137 137 136
53 53 56 58 57 57 57 57 57 58 59 60 61 63 65 66 67 68 68 68 69 69 70 71 71 71 72 73 73 73 74 74 74 75 76 77 78 79 80 82 84 86 88 90 93 95 97 99 101 103 105 107 109 112 114 116 118 120 122 123 125 126 128 129 131 131 132 133 134 135 136 137 137 138 138 137 137 137 136 135 135 135 134 133 133 132
54 54 55 57 56 55 55 56 56 57 59 61 63 64 66 66 67 67 67 67 68 68 68 69 69 68 69 70 71 71 72 73 74 76 78 79 81 82 84 86 88 90 93 95 97 99 101 103 106 108 110 112 114 117 119 120 122 124 125 126 128 129 130 131 133 134 136 137 138 139 139 140 140 139 139 139 138 136 134 132 130 129 127 126 125 125
54 54 54 56 56 56 56 57 58 59 60 62 63 64 64 64 64 63 63 63 64 65 65 66 65 65 66 68 70 72 73 75 77 79 82 84 85 87 89 91 93 95 97 100 102 104 106 108 110 112 114 117 119 120 122 124 125 126 128 129 130 132 134 135 137 138 140 141 142 142 142 141 140 139 138 136 134 132 130 127 125 123 121 120 119 119
54 54 55 56 56 56 57 58 59 59 60 60 60 61 60 60 59 59 58 59 60 62 64 65 65 65 67 70 72 74 77 79 81 84 86 88 90 91 93 96 98 101 103 105 107 109 111 112 114 116 118 120 121 123 124 126 128 130 131 133 135 137 139 141 141 142 142 142 141 141 139 137 135 133 131 130 128 127 126 125 123 121 119 117 116 116
54 54 55 56 57 56 56 56 57 57 57 56 56 57 56 56 56 56 57 58 60 63 65 67 68 69 72 74 76 79 81 83 86 88 91 93 95 96 98 101 103 105 107 109 111 112 114 115 117 119 121 123 125 127 129 131 133 135 137 139 140 141 142 142 141 140 139 137 135 134 132 131 129 128 126 125 123 122 122 121 120 119 117 115 114 113
52 52 53 54 55 54 54 53 53 54 54 53 53 55 56 56 57 58 59 61 64 66 68 70 72 74 76 78 81 83 86 88 91 93 96 97 99 100 102 104 106 108 110 112 114 116 118 120 122 125 127 129 131 133 134 136 137 138 139 140 140 139 137 136 134 133 131 130 128 128 127 126 125 124 123 121 120 118 117 116 115 115 114 113 112 111
50 50 49 50 50 50 50 50 50 51 52 52 53 55 56 58 59 61 62 65 67 69 72 74 75 78 81 83 86 88 90 92 95 98 100 102 103 104 106 109 111 113 116 118 120 122 124 126 128 130 132 133 134 135 135 136 135 135 134 133 133 131 130 128 128 127 127 126 125 124 123 123 122 121 120 119 117 116 114 113 113 112 111 110 110 110
47 47 47 47 46 47 48 49 50 51 52 53 55 57 58 60 62 64 66 69 71 73 76 78 79 82 84 87 89 92 94 96 99 101 104 107 109 111 113 115 117 120 122 124 126 127 129 130 132 132 133 133 132 132 131 130 129 128 127 127 127 127 126 125 124 124 123 122 121 120 120 119 118 117 117 116 115 113 111 110 110 108 106 106 107 106
46 46 46 46 46 46 48 50 51 52 54 56 58 60 61 63 65 68 70 72 74 77 79 82 83 85 87 90 93 95 98 100 103 105 108 110 113 115 117 119 121 123 125 127 128 128 129 129 129 128 127 127 126 125 125 125 124 124 124 124 124 123 122 121 120 119 119 118 117 116 116 115 114 113 112 110 109 108 106 105 104 103 101 101 101 101
45 45 47 48 47 48 50 52 54 55 57 59 62 63 64 66 68 70 73 75 78 80 82 85 87 89 92 94 97 99 102 104 107 109 112 114 116 118 120 122 123 124 125 125 125 125 124 124 123 122 122 122 122 121 121 121 120 120 120 120 120 119 118 117 116 115 114 114 112 111 110 108 107 106 105 104 103 102 101 100 99 97 96 96 96 95
46 47 49 50 51 52 53 55 57 59 60 62 65 66 68 69 71 74 76 79 82 85 87 89 91 94 96 99 102 104 107 109 112 114 116 118 120 121 122 122 122 122 121 120 119 119 119 119 119 119 119 118 118 117 116 115 115 115 115 115 115 114 113 112 111 110 109 108 107 105 104 102 101 100 99 98 97 97 96 95 94 93 92 92 93 92
48 49 51 52 53 54 56 58 59 61 64 66 68 70 72 74 76 78 80 83 86 89 92 94 96 99 102 105 108 110 113 115 117 119 120 121 121 121 120 119 119 118 117 116 115 115 116 116 115 115 115 114 114 113 112 112 111 111 111 110 110 109 108 107 106 105 104 103 102 100 99 98 96 96 95 95 94 93 93 92 91 90 90 89 90 91
50 51 53 55 55 57 59 61 63 66 68 70 73 75 77 79 80 82 85 88 91 94 97 99 102 104 107 110 113 115 117 118 119 119 118 117 117 117 116 115 114 113 112 112 111 112 112 112 112 112 112 111 111 111 110 108 107 107 106 106 105 104 103 102 101 100 100 99 98 97 96 95 94 94 94 93 92 92 91 90 90 89 88 87 88 88
52 54 56 58 60 61 63 65 67 70 72 74 77 79 82 84 85 87 90 93 97 100 102 104 107 109 111 113 114 116 116 117 116 115 114 113 112 112 111 111 110 109 108 108 108 108 108 108 109 109 109 109 107 106 105 104 103 102 102 102 101 101 100 99 98 98 97 96 96 95 94 93 92 91 92 91 91 90 89 89 88 87 87 86 85 85
56 57 60 62 64 66 68 70 72 74 77 79 81 84 87 89 91 93 95 99 102 105 108 110 111 113 113 113 113 112 112 112 112 111 110 108 107 106 105 105 106 106 106 106 106 107 107 107 107 107 106 105 103 102 101 100 99 99 99 99 98 97 97 96 96 96 95 94 94 93 91 90 89 88 88 88 88 87 86 86 85 85 85 84 83 82
60 61 64 66 68 70 73 75 77 79 82 85 87 90 93 95 96 98 100 104 107 109 111 112 113 113 112 111 110 109 108 107 107 107 105 104 103 103 102 103 104 105 106 107 107 106 106 105 104 103 102 101 100 100 98 98 97 97 97 97 96 95 95 94 94 93 92 92 91 90 88 87 86 85 85 85 84 83 83 82 82 82 81 81 81 80
64 66 68 70 72 74 77 79 81 84 87 90 93 96 98 100 102 103 105 108 110 112 112 111 111 109 108 107 106 105 104 103 104 104 104 104 104 105 105 105 106 107 108 107 106 105 103 103 102 101 100 99 98 98 97 96 96 95 95 96 95 95 94 93 92 91 90 89 88 86 85 84 82 82 82 82 81 80 80 79 79 79 78 78 78 77
69 71 72 74 76 79 81 84 86 88 91 95 98 101 103 105 106 107 108 109 109 109 108 107 106 104 103 103 102 101 100 100 101 104 105 106 107 108 108 108 108 107 107 106 104 103 102 101 101 100 99 98 96 96 95 94 94 93 93 94 94 93 93 92 91 89 87 86 84 83 82 80 79 78 78 78 78 78 78 77 76 76 76 75 75 75
73 75 77 79 81 84 86 89 91 93 95 98 102 105 107 109 109 108 107 106 105 104 103 102 101 100 99 99 99 98 98 97 98 102 104 106 108 108 108 107 107 106 105 104 103 102 101 101 101 99 98 97 95 94 93 92 92 91 91 91 91 91 90 90 88 87 85 83 81 79 78 76 75 74 73 73 74 74 75 75 74 74 74 73 72 72
77 79 82 84 86 88 91 94 96 98 100 102 105 108 109 109 108 106 104 103 102 102 101 100 99 98 97 97 97 97 97 96 95 97 101 103 104 105 104 103 103 104 104 103 102 101 100 99 99 98 97 96 94 93 92 91 90 89 88 88 87 87 86 85 84 83 81 79 78 76 75 73 71 70 69 69 70 71 72 71 72 72 72 71 69 69
81 84 86 89 91 94 96 98 101 102 104 105 106 107 107 106 105 103 102 100 99 99 99 98 97 97 96 96 97 97 98 98 96 95 96 98 99 99 100 100 100 101 101 100 99 98 97 97 97 96 95 94 93 92 91 90 89 88 87 85 84 83 82 81 80 79 77 76 75 74 72 70 68 67 66 66 66 68 68 68 68 69 69 68 67 66
86 88 91 93 95 97 99 101 103 104 104 105 104 103 103 102 101 100 99 98 96 96 96 96 95 95 95 95 96 97 98 99 98 97 96 97 97 97 98 99 99 99 99 98 96 96 95 95 95 95 95 94 92 91 90 89 88 87 85 83 82 81 79 78 77 75 74 73 72 71 69 68 66 64 63 63 63 64 65 64 64 64 65 64 64 63
90 92 94 96 98 100 101 102 102 101 100 100 99 98 98 98 97 96 96 95 94 94 94 94 94 94 94 95 95 96 97 99 99 99 99 99 98 98 97 97 97 97 97 96 95 94 94 94 94 94 94 93 92 90 88 86 85 84 83 81 80 79 78 77 75 73 71 70 69 68 66 64 63 61 60 60 60 61 62 61 59 59 59 60 60 60
93 95 96 97 98 98 98 98 96 95 94 93 93 93 93 93 92 92 92 92 92 92 92 92 92 92 93 94 95 97 98 99 99 99 99 99 99 98 97 96 95 95 94 94 93 92 92 92 92 93 92 91 89 87 85 83 82 81 80 79 78 77 77 76 74 71 70 68 66 65 63 61 59 58 56 56 58 58 58 57 56 54 54 55 56 56
94 95 96 95 94 94 93 92 91 90 89 89 89 89 89 89 89 88 88 89 90 90 91 91 92 93 94 94 96 97 98 98 98 98 98 97 96 95 94 93 93 92 91 91 90 90 90 90 90 90 90 88 86 85 83 80 78 78 78 77 76 75 75 74 72 69 68 66 64 63 61 59 57 55 53 54 55 56 55 53 52 51 51 51 52 52
92 92 91 91 90 89 89 89 88 87 86 86 86 86 86 87 87 87 88 88 89 90 92 93 94 95 96 96 96 96 96 95 95 95 95 94 92 91 91 90 90 90 89 89 88 88 88 87 87 87 87 86 84 83 81 79 77 75 75 74 74 73 73 71 69 67 65 63 62 60 59 57 55 53 51 52 53 53 52 50 50 49 48 47 48 49
87 87 86 85 85 85 85 85 85 85 84 84 84 85 85 86 87 88 89 91 92 93 94 95 96 96 96 95 94 93 93 92 92 92 91 90 89 88 88 88 88 88 88 87 87 86 86 85 85 84 83 83 82 81 80 79 77 75 73 72 70 70 70 68 66 64 62 60 59 57 56 55 54 51 50 50 51 50 48 48 49 48 45 44 45 46
82 81 82 82 81 81 82 82 83 84 84 84 84 86 87 89 90 91 92 93 94 94 95 95 95 94 93 92 91 90 90 90 89 89 89 87 86 86 86 86 87 87 87 86 85 84 83 83 82 81 80 80 79 79 78 77 75 73 72 69 68 67 67 66 64 62 60 58 57 55 54 53 52 50 48 48 49 49 45 44 46 47 44 42 42 42
77 77 78 78 79 79 79 80 81 83 85 86 86 88 89 90 91 92 92 93 93 93 93 93 92 91 90 90 89 89 88 88 87 86 86 85 84 84 85 86 86 86 86 85 84 82 81 80 79 79 78 77 76 76 75 74 72 70 69 67 65 64 64 64 62 60 57 56 55 53 52 50 49 48 47 45 46 47 44 42 42 43 42 40 40 39
74 74 75 76 77 78 79 80 81 83 85 87 87 88 89 89 89 90 90 90 90 90 90 90 90 90 89 88 87 87 86 86 85 85 84 84 83 84 85 85 85 85 84 83 82 81 79 78 77 77 76 75 74 72 71 70 69 68 67 65 64 63 62 63 61 59 56 54 53 51 50 48 46 46 46 44 42 43 43 41 40 39 38 38 38 37
72 73 74 76 77 79 80 81 81 82 83 85 85 85 86 86 87 87 87 87 87 87 87 87 87 88 88 87 86 85 84 84 84 84 84 84 84 84 84 84 83 83 82 81 79 79 78 78 77 75 74 73 71 70 69 68 67 66 65 64 62 60 60 60 60 58 55 53 52 50 48 47 45 43 43 42 40 39 39 39 37 36 36 35 35 35
72 74 75 76 78 79 81 81 81 81 82 83 83 83 83 83 84 84 84 84 84 85 85 85 85 84 85 85 84 83 83 83 83 84 84 85 84 83 83 82 81 80 79 78 76 75 75 75 74 74 73 72 70 69 68 67 66 65 64 63 60 58 58 58 57 56 54 52 50 49 47 46 45 42 41 40 39 37 36 36 35 34 33 33 33 32
Wind_Direction
270 269 269 269 270 270 270 271 271 271 272 273 274 274 274 273 271 272 272 270 270 273 276 276 276 274 273 274 274 275 276 278 279 280 281 281 282 283 283 284 284 285 286 286 287 287 287 288 288 288 287 287 287 286 286 285 285 285 285 285 284 284 284 284 284 284 283 283 282 282 281 281 280 280 279 279 279 279 280 280 280 280 280 281 281 282
271 270 270 271 271 271 271 271 271 271 271 271 272 272 271 270 269 270 272 272 274 276 276 275 273 271 270 271 273 275 278 280 281 282 282 283 283 283 283 284 284 285 285 286 286 287 288 288 288 287 287 287 286 286 286 286 286 285 285 285 285 285 285 284 284 283 283 282 282 281 280 279 279 279 279 279 279 280 280 280 281 281 281 282 282 283
272 272 272 272 271 271 271 270 270 270 270 270 269 269 269 269 269 270 271 273 276 276 274 272 270 269 270 272 274 277 279 281 281 281 282 282 282 282 282 283 283 284 284 285 286 287 287 287 287 287 287 286 286 286 286 286 285 285 285 285 285 285 284 284 283 282 282 281 280 279 279 278 278 278 278 279 279 280 280 281 281 282 282 282 283 283
275 274 274 273 271 271 271 270 270 269 268 268 268 268 268 270 270 271 272 274 274 273 271 270 270 270 272 274 276 278 280 281 281 281 281 281 281 282 282 282 283 284 285 286 286 287 287 287 287 287 287 286 286 286 285 285 285 285 285 285 284 284 283 282 281 281 280 279 279 278 278 278 278 278 279 279 279 280 281 281 281 282 282 282 283 283
276 275 274 273 273 272 272 270 269 267 267 268 269 269 270 271 272 272 272 272 272 271 271 271 272 273 275 277 278 279 280 280 280 281 281 281 282 282 283 284 285 286 286 287 287 287 287 287 287 286 286 286 285 285 285 284 284 284 284 284 283 282 281 280 279 279 279 278 278 278 278 278 279 279 279 280 280 281 281 281 282 282 282 282 282 283
278 277 275 275 274 273 272 272 270 270 270 271 272 272 272 272 271 270 269 269 269 271 272 272 273 274 276 277 278 279 279 279 280 280 280 281 281 282 284 285 286 286 287 287 288 288 287 287 287 286 286 285 285 285 284 284 284 284 284 283 281 280 280 280 279 279 279 279 279 279 279 279 280 280 280 280 281 281 281 282 282 282 282 282 282 283
281 280 278 277 276 274 274 273 273 273 273 273 274 274 273 271 270 270 269 269 269 270 272 272 274 275 276 276 277 277 278 278 279 279 279 280 281 283 284 285 286 286 287 287 287 287 287 286 286 285 285 285 285 284 284 284 284 284 282 281 280 279 280 279 279 279 280 280 280 280 280 280 280 281 281 281 281 282 282 282 282 282 282 282 283 283
282 281 280 279 278 276 275 275 274 274 273 273 273 273 273 272 271 271 271 272 272 273 274 274 275 276 277 276 276 276 277 277 278 279 280 281 282 283 285 286 287 287 287 287 286 286 286 285 285 285 284 284 284 284 284 284 284 282 280 279 279 280 280 280 280 280 280 280 280 280 280 281 281 281 281 281 282 282 282 282 283 283 283 283 283 284
284 282 282 281 279 278 277 275 275 274 273 273 273 273 273 273 273 273 273 274 274 275 275 275 275 276 276 276 277 277 278 279 280 281 282 283 284 285 287 287 287 287 287 286 285 285 285 285 285 285 285 284 284 284 284 283 282 280 279 279 279 279 280 280 280 280 280 280 280 281 281 281 282 282 282 282 282 282 283 283 283 283 284 284 284 284
286 284 283 282 281 280 279 277 276 276 275 274 274 274 274 274 274 275 275 275 275 275 275 275 276 276 276 277 279 279 280 281 282 283 284 285 286 287 287 287 287 287 286 286 285 285 285 285 285 285 285 285 284 284 283 282 280 279 279 279 279 279 280 280 280 280 280 280 281 281 282 282 282 283 283 283 283 283 284 284 284 284 284 284 284 284
288 287 286 284 283 282 281 279 278 278 277 277 276 276 276 277 277 277 277 277 276 276 276 277 277 277 278 279 280 281 282 283 284 285 286 286 287 287 287 287 287 286 286 286 286 286 286 286 285 285 285 284 284 283 281 280 278 278 278 278 279 279 280 280 280 280 281 281 282 282 282 283 283 283 283 284 284 284 284 284 284 284 284 284 284 284
289 288 287 286 285 284 283 282 281 280 279 279 278 278 278 278 279 279 278 278 278 278 278 279 279 280 280 281 282 283 284 285 286 286 287 287 287 287 287 287 286 286 286 286 286 286 286 285 285 285 284 284 282 281 279 278 277 277 277 278 278 279 279 280 280 281 281 282 282 283 283 283 283 284 284 284 284 285 285 285 285 285 285 285 284 284
291 290 289 288 287 286 285 284 283 283 282 281 280 280 279 279 280 279 279 279 280 280 280 281 282 282 283 284 285 285 286 286 287 286 286 286 286 286 286 285 285 285 285 285 286 286 285 285 285 284 283 282 281 279 278 278 278 278 278 278 279 279 280 280 281 281 282 283 283 284 284 284 284 285 285 285 285 285 285 285 285 286 286 286 286 285
293 292 290 290 289 288 287 287 286 286 284 283 283 282 282 281 281 281 281 281 281 282 283 283 284 285 285 286 287 287 287 287 286 286 286 285 285 285 285 285 285 285 285 286 286 286 285 285 284 283 282 281 280 280 280 279 279 280 280 280 281 281 281 282 282 283 283 284 284 284 285 285 285 285 286 286 286 286 286 286 286 286 286 286 286 286
294 293 292 291 291 290 290 290 289 288 288 287 286 286 285 285 284 284 283 283 284 284 285 285 286 286 287 287 288 288 288 287 286 286 286 286 286 285 285 285 286 286 286 287 286 286 285 285 284 283 282 281 281 281 281 281 281 281 282 282 283 283 283 284 284 284 284 284 284 285 285 285 286 286 286 286 286 286 286 286 286 286 286 286 286 286
295 295 294 293 292 292 292 292 291 291 290 289 288 288 287 287 287 286 286 286 286 286 286 286 287 287 288 288 288 288 287 287 286 286 286 286 286 286 286 286 286 286 286 286 286 285 285 284 283 282 282 282 282 281 282 282 282 283 283 283 283 284 284 284 284 284 284 284 284 284 284 285 285 285 285 285 286 286 286 286 286 286 285 285 285 285
296 295 294 294 293 293 293 293 292 291 291 290 289 289 288 288 288 287 287 287 287 287 286 286 287 287 288 288 288 287 287 286 287 287 286 286 286 286 286 286 286 286 285 285 285 284 283 283 283 283 282 282 282 282 282 283 283 283 283 283 283 284 284 284 284 284 284 284 284 284 284 284 285 285 285 286 286 286 286 286 286 286 286 285 285 285
296 295 294 294 294 294 294 293 292 292 291 291 290 289 289 288 288 288 288 288 288 287 287 287 287 287 288 288 288 287 287 287 287 287 287 287 287 287 287 286 286 285 285 284 284 283 283 283 283 283 283 282 283 283 283 283 283 283 283 284 284 284 284 284 284 284 285 285 285 285 285 285 286 286 285 285 285 285 285 285 285 285 286 286 285 285
296 295 294 294 294 294 294 293 293 292 292 291 291 290 289 289 289 288 288 288 288 288 288 288 288 289 289 289 288 288 287 287 287 287 287 287 287 287 287 286 286 286 285 285 284 284 284 284 284 284 284 284 284 284 284 284 284 284 285 285 285 285 285 285 286 286 286 286 286 286 285 285 285 285 285 285 285 285 285 285 286 286 286 286 286 285
296 295 293 294 294 294 294 294 293 293 292 292 291 291 291 290 290 290 290 290 289 289 289 289 289 290 290 289 289 289 288 288 288 288 288 287 287 287 287 287 287 287 287 287 286 286 286 286 286 285 285 285 285 285 285 285 285 285 286 286 286 286 286 287 286 286 286 286 286 286 286 286 286 286 286 286 286 286 286 286 286 286 285 285 285 284
296 295 294 294 294 294 294 294 293 293 293 292 292 292 291 291 291 292 292 292 292 291 290 290 290 291 291 290 290 290 290 289 289 289 289 288 288 288 288 288 288 288 287 287 287 287 287 286 286 286 286 286 286 286 286 286 286 286 287 287 287 287 287 287 287 287 287 287 287 287 287 288 288 288 288 288 287 287 286 286 285 285 284 284 284 283
297 296 296 295 296 295 295 295 294 294 294 293 293 293 293 294 294 294 294 294 293 293 292 292 292 292 291 291 291 291 290 290 290 290 289 289 289 289 289 289 288 288 287 287 287 287 287 286 286 287 287 286 287 287 287 287 287 287 288 288 288 288 288 289 289 288 288 289 289 289 288 288 288 288 288 288 287 287 287 286 286 285 285 285 284 284
298 298 297 297 297 297 297 296 296 296 296 296 296 296 296 296 296 296 296 295 295 294 294 293 294 293 292 292 291 291 291 291 290 290 290 289 290 290 290 289 289 289 288 288 288 288 287 287 287 288 288 288 288 288 289 289 289 290 290 290 290 290 290 290 289 289 289 289 289 289 288 288 288 288 288 287 287 287 287 287 287 287 286 285 285 284
300 300 299 298 298 298 299 299 298 298 298 298 299 298 298 298 298 298 298 297 296 295 295 295 295 294 293 293 292 292 292 291 291 291 290 290 290 290 290 289 289 289 289 289 289 289 289 290 290 290 290 290 291 291 291 291 291 291 291 291 290 290 289 289 289 289 289 289 289 289 289 289 288 288 288 288 287 287 287 286 286 286 286 285 284 284
301 300 300 300 300 301 302 302 301 300 300 301 301 300 300 300 300 299 298 297 296 295 295 295 295 294 294 293 293 293 292 292 291 291 291 290 290 290 290 290 290 291 291 291 291 292 292 293 293 293 292 292 292 292 292 292 292 291 291 290 289 289 289 289 289 289 289 290 290 290 290 289 289 289 289 288 288 287 287 286 286 285 285 285 284 283
303 302 302 302 303 304 304 303 303 302 302 302 301 300 300 300 299 298 297 296 296 295 295 295 295 294 294 294 293 293 293 293 293 293 293 293 294 294 294 294 294 294 294 294 294 294 294 294 293 293 293 293 293 292 292 291 291 290 290 290 290 290 290 291 291 291 291 291 290 290 290 289 289 289 289 288 288 287 287 286 285 285 284 284 283 282
305 305 305 305 306 306 305 304 304 303 303 302 301 300 300 299 299 298 298 297 297 297 296 296 296 296 296 296 295 296 296 296 296 296 296 297 297 297 297 296 296 296 295 295 295 294 294 294 294 293 293 293 293 292 291 291 291 291 291 292 292 292 292 292 292 291 291 290 290 289 289 288 288 288 288 287 287 286 286 285 284 284 283 283 282 281
307 307 307 307 308 307 306 305 305 304 303 302 301 301 301 301 300 299 299 298 298 298 298 298 298 298 298 298 298 298 298 297 297 297 297 296 296 296 295 295 295 295 295 294 295 295 294 294 294 294 293 293 293 293 293 293 293 293 293 293 293 292 291 291 291 290 290 289 289 288 288 288 287 287 287 286 286 286 285 285 284 283 283 282 281 281
309 309 308 308 309 308 307 306 306 305 304 303 303 302 302 301 301 300 300 300 300 300 300 299 299 299 299 298 298 298 297 296 296 296 295 295 295 295 295 295 295 295 295 295 295 295 295 295 294 294 294 294 294 294 294 293 293 293 293 292 292 291 291 291 291 290 290 289 289 289 288 288 288 287 287 287 286 286 285 285 284 284 283 282 282 281
310 310 310 310 310 309 308 307 307 306 305 304 303 303 303 302 302 302 302 302 301 301 300 300 299 299 299 298 298 297 297 297 297 297 297 297 297 297 297 297 297 297 297 297 297 297 296 296 295 295 294 294 294 293 293 293 293 293 293 292 292 292 292 292 291 291 291 290 290 290 290 289 289 289 288 288 287 287 286 286 285 285 284 284 283 282
312 311 311 311 310 309 308 307 306 305 305 304 304 304 303 303 303 303 302 302 301 300 300 300 300 300 300 300 300 300 299 299 299 299 299 299 299 298 298 298 298 298 298 298 298 297 296 295 294 294 294 294 294 295 295 295 295 294 294 294 293 293 293 293 293 292 292 292 292 292 291 291 291 291 290 289 289 288 287 287 286 285 284 284 283 283
312 311 310 309 309 308 307 307 306 306 305 305 305 304 304 303 303 302 302 302 301 301 301 301 302 302 302 301 301 301 301 301 300 300 300 300 300 300 299 299 299 299 299 298 296 295 294 295 295 296 296 296 297 297 297 297 296 296 296 295 295 295 295 295 294 294 294 294 293 293 293 293 292 292 291 290 290 289 288 287 287 286 284 283 283 282
311 310 309 309 308 308 308 307 307 306 306 305 305 304 303 303 303 303 303 303 303 303 303 303 303 303 302 302 301 301 301 301 301 301 300 300 300 300 300 300 299 298 297 296 296 296 296 297 298 298 298 298 298 298 298 298 297 297 297 297 297 296 296 296 296 295 295 295 294 294 294 293 293 292 291 291 290 289 288 287 286 285 284 283 282 281
310 310 309 309 309 309 308 308 307 306 306 305 304 303 303 303 304 304 305 304 304 304 304 304 303 303 302 302 302 302 302 302 301 301 301 301 300 300 299 299 298 298 298 298 299 299 300 300 300 300 300 300 299 299 299 299 299 299 299 298 298 298 297 297 296 296 296 295 295 294 294 293 293 292 291 290 289 288 288 287 286 285 284 283 282 281
311 311 310 310 309 309 308 308 307 306 305 305 304 304 304 304 305 306 306 305 305 304 304 304 304 303 303 303 303 303 303 303 302 302 302 302 301 301 300 300 300 301 301 302 302 302 302 302 301 301 301 301 301 301 301 301 301 301 300 300 299 299 298 298 297 297 296 296 295 295 294 294 293 292 291 290 290 289 288 287 286 285 284 283 282 281
312 311 310 310 309 308 307 306 306 305 305 305 305 305 305 306 306 306 306 305 305 305 304 304 304 304 304 304 304 304 304 304 304 304 304 304 304 303 303 303 304 304 304 303 303 303 303 303 303 303 303 303 303 303 303 302 302 302 301 301 300 300 299 299 298 298 297 297 296 296 295 295 294 294 293 292 291 290 289 288 286 285 284 283 282 282
311 310 310 309 308 307 306 306 306 306 306 306 306 306 306 306 306 306 306 305 305 305 304 304 304 304 305 305 305 306 306 306 306 306 306 306 306 305 305 305 305 305 304 304 304 305 305 305 305 305 305 304 304 304 304 303 303 303 302 301 301 301 300 300 300 299 299 298 298 297 297 296 295 294 293 293 292 291 289 288 286 285 284 283 282 282
310 309 309 308 307 307 307 307 307 307 307 307 306 306 306 306 306 306 306 306 306 305 305 306 306 307 307 307 307 307 307 307 307 307 306 306 305 305 305 306 306 306 306 306 306 307 307 306 306 305 305 305 305 305 304 304 304 303 303 302 302 302 301 301 301 301 300 299 299 298 298 297 296 295 294 293 291 290 289 287 286 285 284 283 283 282
309 309 308 308 308 308 308 308 308 308 308 307 307 306 306 307 307 307 307 307 307 307 308 308 308 308 308 308 308 307 307 307 306 305 304 304 304 305 305 306 307 307 307 307 307 308 307 307 306 306 305 305 306 305 305 305 305 304 304 303 303 303 302 302 302 301 301 301 300 299 298 297 296 295 294 292 290 289 288 287 286 285 284 284 283 283
309 309 309 309 309 309 309 309 308 308 308 308 307 307 307 308 308 308 308 309 309 309 309 309 309 309 308 308 308 307 307 306 305 304 304 304 305 306 307 308 308 308 307 308 308 308 307 307 306 306 306 306 306 306 306 306 306 306 305 305 304 304 303 303 302 302 302 302 301 300 299 298 297 296 294 292 290 288 286 285 285 284 284 284 284 283
310 310 310 310 309 309 309 308 308 308 308 308 308 308 308 308 309 309 309 310 309 309 309 309 309 309 308 308 308 307 307 307 307 308 308 309 309 310 310 309 309 309 308 308 308 308 308 308 308 308 308 308 308 308 308 308 308 307 307 307 306 306 305 304 303 303 303 302 301 300 300 299 298 296 294 292 290 288 286 285 285 284 284 284 283 282
310 310 309 309 309 308 308 308 308 308 308 308 308 308 308 309 309 309 310 310 309 309 309 309 309 309 309 309 309 309 310 310 311 312 312 312 312 311 311 311 310 310 310 310 310 309 309 309 309 308 309 309 309 309 309 309 309 309 309 308 308 307 306 305 304 304 304 303 302 301 300 299 298 297 295 293 291 289 287 287 286 285 285 284 283 282
310 309 309 308 308 308 308 308 308 308 308 308 308 308 309 309 309 309 309 309 309 309 309 309 309 310 310 311 311 312 313 313 313 313 313 313 313 313 312 311 311 310 310 310 310 310 310 310 309 309 309 309 310 310 310 311 310 310 309 309 308 308 307 306 306 306 305 304 304 303 301 300 299 298 296 294 292 290 288 288 288 287 285 283 283 282
310 309 309 309 309 309 309 309 309 309 309 309 309 309 309 309 309 309 309 309 309 310 310 311 312 312 313 314 315 315 314 314 314 313 313 313 313 312 312 311 311 311 311 310 310 310 310 310 310 310 310 310 311 311 312 312 311 310 310 310 309 308 307 307 307 307 306 306 305 304 303 302 301 299 298 296 293 291 290 290 289 287 285 284 283 282
310 310 310 310 310 310 310 310 310 311 311 310 310 310 310 310 311 311 311 312 312 313 314 314 315 315 316 316 316 315 314 314 313 313 312 312 312 312 312 312 311 311 311 311 311 311 312 311 311 312 312 312 313 313 313 313 312 312 311 310 310 309 308 308 308 308 307 307 307 306 305 304 303 301 299 297 295 293 293 293 290 288 286 285 284 282
311 311 311 311 311 311 311 312 312 312 312 312 312 312 313 313 314 315 315 316 316 317 317 317 316 316 316 316 315 314 314 313 313 313 313 313 313 313 313 313 313 312 312 313 313 313 313 313 313 313 314 314 314 314 314 314 313 313 312 311 310 309 309 308 308 308 309 309 308 307 306 305 304 303 301 299 296 295 295 295 292 289 288 287 285 283
312 312 312 313 313 313 313 313 314 314 314 315 316 316 317 317 318 318 318 318 318 317 317 316 316 315 315 315 315 315 315 314 314 314 314 314 315 315 315 314 314 314 314 314 315 315 315 315 315 315 315 315 315 314 314 314 313 313 312 312 311 311 310 309 309 310 310 310 309 308 308 306 305 304 302 300 298 296 295 295 292 291 290 288 286 285
314 314 314 315 315 315 315 316 316 317 318 318 319 319 319 319 319 318 318 317 317 316 316 316 316 316 316 316 316 316 316 316 316 316 316 316 317 317 316 316 316 316 316 316 317 317 317 316 316 316 316 316 315 314 314 313 313 313 313 313 313 313 312 311 311 311 312 311 310 309 309 308 306 305 303 301 299 298 296 294 292 291 290 289 288 286
316 316 317 317 318 318 319 319 320 320 320 320 320 320 319 318 318 317 317 316 316 316 317 317 317 317 317 318 318 318 318 317 317 317 318 318 319 319 319 318 318 318 318 318 318 318 318 318 317 317 316 316 315 315 315 314 314 314 315 315 315 315 314 312 312 313 313 312 311 311 309 308 307 305 303 302 300 298 297 295 293 292 291 290 288 287
319 320 321 321 321 321 321 321 321 321 320 320 319 319 318 317 317 317 317 317 317 317 318 318 318 318 319 319 319 320 320 320 319 319 320 320 321 321 320 320 320 319 319 319 319 320 319 319 318 318 317 317 317 317 317 317 317 316 316 316 316 316 315 314 313 314 314 314 313 312 311 310 308 306 304 303 301 299 298 296 295 293 292 290 289 288
324 324 324 324 323 323 322 322 322 322 321 320 319 319 318 318 319 319 319 319 319 319 319 319 320 320 321 321 321 321 322 322 321 321 322 322 322 322 322 321 320 320 320 320 320 320 320 319 319 319 319 319 320 320 319 319 318 318 317 317 318 318 316 315 315 315 315 315 314 313 312 311 310 308 307 305 304 302 300 298 297 295 294 292 290 289